Time,TemperatureF,DewpointF,PressureIn,WindDirection,WindDirectionDegrees,WindSpeedMPH,WindSpeedGustMPH,Humidity,HourlyPrecipIn,Conditions,Clouds,dailyrainin,SoftwareType,DateUTC
2013-02-21 00:02:00,25.0,12.0,29.93,SSW,210,2.0,9.0,57,0.00,,,0.00,,2013-02-21 05:02:00,
2013-02-21 00:12:00,25.0,12.0,29.92,NNW,338,5.0,11.0,58,0.00,,,0.00,,2013-02-21 05:12:00,
2013-02-21 00:22:00,25.0,12.0,29.92,NNW,338,5.0,11.0,58,0.00,,,0.00,,2013-02-21 05:22:00,
2013-02-21 00:35:00,25.0,13.0,29.93,NW,316,2.0,9.0,59,0.00,,,0.00,,2013-02-21 05:35:00,
2013-02-21 00:44:00,25.0,13.0,29.93,NW,316,2.0,9.0,59,0.00,,,0.00,,2013-02-21 05:44:00,
2013-02-21 01:00:00,26.0,13.0,29.91,North,354,1.0,8.0,58,0.00,,,0.00,,2013-02-21 06:00:00,
2013-02-21 01:11:00,26.0,14.0,29.91,NNW,347,3.0,7.0,59,0.00,,,0.00,,2013-02-21 06:11:00,
2013-02-21 01:21:00,26.0,14.0,29.91,NNW,347,3.0,7.0,59,0.00,,,0.00,,2013-02-21 06:21:00,
2013-02-21 01:31:00,26.0,14.0,29.91,NNW,347,0.0,5.0,59,0.00,,,0.00,,2013-02-21 06:31:00,
2013-02-21 01:41:00,25.0,13.0,29.91,NNW,342,0.0,8.0,59,0.00,,,0.00,,2013-02-21 06:41:00,
2013-02-21 01:51:00,25.0,13.0,29.91,NNW,342,0.0,8.0,59,0.00,,,0.00,,2013-02-21 06:51:00,
2013-02-21 02:01:00,25.0,13.0,29.91,North,0,1.0,5.0,60,0.00,,,0.00,,2013-02-21 07:01:00,
2013-02-21 02:11:00,25.0,13.0,29.91,WNW,297,0.0,9.0,60,0.00,,,0.00,,2013-02-21 07:11:00,
2013-02-21 02:21:00,25.0,13.0,29.91,WNW,297,0.0,9.0,60,0.00,,,0.00,,2013-02-21 07:21:00,
2013-02-21 02:32:00,25.0,13.0,29.91,South,191,3.0,8.0,59,0.00,,,0.00,,2013-02-21 07:32:00,
2013-02-21 02:42:00,25.0,13.0,29.90,WSW,246,0.0,5.0,59,0.00,,,0.00,,2013-02-21 07:42:00,
2013-02-21 02:52:00,25.0,13.0,29.90,WSW,246,0.0,5.0,59,0.00,,,0.00,,2013-02-21 07:52:00,
2013-02-21 03:01:00,25.0,13.0,29.90,SW,231,1.0,5.0,60,0.00,,,0.00,,2013-02-21 08:01:00,
2013-02-21 03:11:00,25.0,13.0,29.90,North,354,2.0,12.0,60,0.00,,,0.00,,2013-02-21 08:11:00,
2013-02-21 03:21:00,25.0,13.0,29.90,North,354,2.0,12.0,60,0.00,,,0.00,,2013-02-21 08:21:00,
2013-02-21 03:32:00,25.0,13.0,29.89,NNW,328,4.0,12.0,60,0.00,,,0.00,,2013-02-21 08:32:00,
2013-02-21 03:42:00,25.0,13.0,29.90,SSW,208,2.0,7.0,60,0.00,,,0.00,,2013-02-21 08:42:00,
2013-02-21 03:52:00,25.0,13.0,29.90,SSW,208,2.0,7.0,60,0.00,,,0.00,,2013-02-21 08:52:00,
2013-02-21 04:01:00,25.0,13.0,29.90,NW,311,1.0,8.0,59,0.00,,,0.00,,2013-02-21 09:01:00,
2013-02-21 04:11:00,25.0,13.0,29.90,NNW,347,1.0,6.0,59,0.00,,,0.00,,2013-02-21 09:11:00,
2013-02-21 04:22:00,25.0,13.0,29.90,NNW,347,1.0,6.0,59,0.00,,,0.00,,2013-02-21 09:22:00,
2013-02-21 04:31:00,25.0,13.0,29.90,WNW,298,1.0,5.0,59,0.00,,,0.00,,2013-02-21 09:31:00,
2013-02-21 04:41:00,25.0,13.0,29.90,NW,323,2.0,8.0,59,0.00,,,0.00,,2013-02-21 09:41:00,
2013-02-21 04:52:00,25.0,13.0,29.90,NW,323,2.0,8.0,59,0.00,,,0.00,,2013-02-21 09:52:00,
2013-02-21 05:01:00,25.0,12.0,29.91,North,0,1.0,5.0,58,0.00,,,0.00,,2013-02-21 10:01:00,
2013-02-21 05:11:00,25.0,12.0,29.91,North,0,1.0,5.0,58,0.00,,,0.00,,2013-02-21 10:11:00,
2013-02-21 05:21:00,25.0,13.0,29.91,SW,219,1.0,7.0,59,0.00,,,0.00,,2013-02-21 10:21:00,
2013-02-21 05:31:00,25.0,12.0,29.92,NNW,341,0.0,8.0,57,0.00,,,0.00,,2013-02-21 10:31:00,
2013-02-21 05:41:00,25.0,12.0,29.92,NNW,336,1.0,5.0,57,0.00,,,0.00,,2013-02-21 10:41:00,
2013-02-21 05:51:00,25.0,12.0,29.92,NNW,336,1.0,5.0,57,0.00,,,0.00,,2013-02-21 10:51:00,
2013-02-21 06:01:00,25.0,12.0,29.92,NNW,347,4.0,11.0,58,0.00,,,0.00,,2013-02-21 11:01:00,
2013-02-21 06:11:00,25.0,12.0,29.92,NNW,347,4.0,11.0,58,0.00,,,0.00,,2013-02-21 11:11:00,
2013-02-21 06:21:00,25.0,12.0,29.92,NNW,344,0.0,8.0,58,0.00,,,0.00,,2013-02-21 11:21:00,
2013-02-21 06:31:00,24.0,11.0,29.91,South,182,2.0,6.0,57,0.00,,,0.00,,2013-02-21 11:31:00,
2013-02-21 06:41:00,24.0,11.0,29.91,NNW,338,2.0,14.0,56,0.00,,,0.00,,2013-02-21 11:41:00,
2013-02-21 06:52:00,24.0,11.0,29.91,NNW,338,2.0,14.0,56,0.00,,,0.00,,2013-02-21 11:52:00,
2013-02-21 07:01:00,24.0,11.0,29.91,NNW,342,6.0,9.0,56,0.00,,,0.00,,2013-02-21 12:01:00,
2013-02-21 07:11:00,24.0,11.0,29.92,SSW,193,2.0,6.0,56,0.00,,,0.00,,2013-02-21 12:11:00,
2013-02-21 07:21:00,24.0,11.0,29.92,SSW,193,2.0,6.0,56,0.00,,,0.00,,2013-02-21 12:21:00,
2013-02-21 07:32:00,24.0,11.0,29.92,NNW,330,3.0,14.0,56,0.00,,,0.00,,2013-02-21 12:32:00,
2013-02-21 07:42:00,25.0,11.0,29.92,NNW,342,1.0,8.0,55,0.00,,,0.00,,2013-02-21 12:42:00,
2013-02-21 07:53:00,25.0,11.0,29.92,NNW,342,1.0,8.0,55,0.00,,,0.00,,2013-02-21 12:53:00,
2013-02-21 08:02:00,25.0,11.0,29.92,WNW,295,3.0,7.0,54,0.00,,,0.00,,2013-02-21 13:02:00,
2013-02-21 08:12:00,26.0,11.0,29.93,North,357,2.0,6.0,53,0.00,,,0.00,,2013-02-21 13:12:00,
2013-02-21 08:22:00,26.0,11.0,29.93,North,357,2.0,6.0,53,0.00,,,0.00,,2013-02-21 13:22:00,
2013-02-21 08:32:00,27.0,12.0,29.91,SSW,213,5.0,9.0,52,0.00,,,0.00,,2013-02-21 13:32:00,
2013-02-21 08:41:00,27.0,11.0,29.92,North,350,6.0,12.0,51,0.00,,,0.00,,2013-02-21 13:41:00,
2013-02-21 08:52:00,27.0,11.0,29.92,North,350,6.0,12.0,51,0.00,,,0.00,,2013-02-21 13:52:00,
2013-02-21 09:02:00,27.0,12.0,29.93,SSW,199,10.0,11.0,52,0.00,,,0.00,,2013-02-21 14:02:00,
2013-02-21 09:11:00,27.0,12.0,29.93,SSW,199,10.0,11.0,52,0.00,,,0.00,,2013-02-21 14:11:00,
2013-02-21 09:22:00,28.0,12.0,29.94,NNW,337,4.0,11.0,51,0.00,,,0.00,,2013-02-21 14:22:00,
2013-02-21 09:32:00,28.0,13.0,29.94,North,2,1.0,6.0,52,0.00,,,0.00,,2013-02-21 14:32:00,
2013-02-21 09:42:00,29.0,13.0,29.94,NNW,328,5.0,11.0,51,0.00,,,0.00,,2013-02-21 14:42:00,
2013-02-21 09:52:00,29.0,13.0,29.94,NNW,328,5.0,11.0,51,0.00,,,0.00,,2013-02-21 14:52:00,
2013-02-21 10:01:00,29.0,13.0,29.95,North,350,4.0,11.0,51,0.00,,,0.00,,2013-02-21 15:01:00,
2013-02-21 10:12:00,30.0,14.0,29.95,SW,236,2.0,8.0,50,0.00,,,0.00,,2013-02-21 15:12:00,
2013-02-21 10:21:00,30.0,14.0,29.95,SW,236,2.0,8.0,50,0.00,,,0.00,,2013-02-21 15:21:00,
2013-02-21 10:32:00,31.0,14.0,29.95,NNW,341,5.0,8.0,49,0.00,,,0.00,,2013-02-21 15:32:00,
2013-02-21 10:42:00,31.0,13.0,29.96,NNW,344,2.0,8.0,47,0.00,,,0.00,,2013-02-21 15:42:00,
2013-02-21 10:52:00,31.0,13.0,29.96,NNW,344,2.0,8.0,47,0.00,,,0.00,,2013-02-21 15:52:00,
2013-02-21 11:01:00,32.0,15.0,29.96,North,2,3.0,8.0,48,0.00,,,0.00,,2013-02-21 16:01:00,
2013-02-21 11:12:00,31.0,13.0,29.96,North,350,1.0,9.0,47,0.00,,,0.00,,2013-02-21 16:12:00,
2013-02-21 11:22:00,31.0,13.0,29.96,North,350,1.0,9.0,47,0.00,,,0.00,,2013-02-21 16:22:00,
2013-02-21 11:32:00,31.0,13.0,29.97,NNW,342,4.0,13.0,47,0.00,,,0.00,,2013-02-21 16:32:00,
2013-02-21 11:42:00,31.0,14.0,29.98,North,349,0.0,10.0,48,0.00,,,0.00,,2013-02-21 16:42:00,
2013-02-21 11:52:00,31.0,14.0,29.98,North,349,0.0,10.0,48,0.00,,,0.00,,2013-02-21 16:52:00,
2013-02-21 12:01:00,31.0,14.0,29.98,SW,229,2.0,9.0,48,0.00,,,0.00,,2013-02-21 17:01:00,
2013-02-21 12:11:00,31.0,14.0,29.98,NNW,339,3.0,11.0,48,0.00,,,0.00,,2013-02-21 17:11:00,
2013-02-21 12:21:00,31.0,14.0,29.98,NNW,339,3.0,11.0,48,0.00,,,0.00,,2013-02-21 17:21:00,
2013-02-21 12:32:00,31.0,14.0,29.98,NNW,336,2.0,11.0,48,0.00,,,0.00,,2013-02-21 17:32:00,
2013-02-21 12:42:00,30.0,13.0,29.97,NW,325,2.0,12.0,48,0.00,,,0.00,,2013-02-21 17:42:00,
2013-02-21 12:52:00,30.0,13.0,29.97,NW,325,2.0,12.0,48,0.00,,,0.00,,2013-02-21 17:52:00,
2013-02-21 13:02:00,30.0,13.0,29.97,North,351,1.0,8.0,48,0.00,,,0.00,,2013-02-21 18:02:00,
2013-02-21 13:12:00,30.0,13.0,29.97,NW,317,2.0,5.0,49,0.00,,,0.00,,2013-02-21 18:12:00,
2013-02-21 13:22:00,30.0,13.0,29.97,NW,317,2.0,5.0,49,0.00,,,0.00,,2013-02-21 18:22:00,
2013-02-21 13:32:00,31.0,14.0,29.97,NNW,343,2.0,8.0,49,0.00,,,0.00,,2013-02-21 18:32:00,
2013-02-21 13:42:00,31.0,14.0,29.97,NNW,343,2.0,8.0,49,0.00,,,0.00,,2013-02-21 18:42:00,
2013-02-21 13:52:00,31.0,14.0,29.97,North,352,2.0,6.0,48,0.00,,,0.00,,2013-02-21 18:52:00,
2013-02-21 14:01:00,32.0,15.0,29.97,NNW,332,1.0,9.0,48,0.00,,,0.00,,2013-02-21 19:01:00,
2013-02-21 14:12:00,32.0,15.0,29.97,NNW,332,1.0,9.0,48,0.00,,,0.00,,2013-02-21 19:12:00,
2013-02-21 14:21:00,32.0,15.0,29.98,North,358,4.0,7.0,48,0.00,,,0.00,,2013-02-21 19:21:00,
2013-02-21 14:32:00,31.0,14.0,29.99,NNW,334,2.0,8.0,48,0.00,,,0.00,,2013-02-21 19:32:00,
2013-02-21 14:42:00,31.0,14.0,29.99,NNW,334,2.0,8.0,48,0.00,,,0.00,,2013-02-21 19:42:00,
2013-02-21 14:52:00,31.0,14.0,30.00,NNW,336,7.0,7.0,49,0.00,,,0.00,,2013-02-21 19:52:00,
2013-02-21 15:01:00,31.0,14.0,30.00,NNW,343,4.0,7.0,49,0.00,,,0.00,,2013-02-21 20:01:00,
2013-02-21 15:11:00,31.0,15.0,30.01,North,350,1.0,7.0,50,0.00,,,0.00,,2013-02-21 20:11:00,
2013-02-21 15:21:00,31.0,15.0,30.01,North,350,1.0,7.0,50,0.00,,,0.00,,2013-02-21 20:21:00,
2013-02-21 15:32:00,31.0,15.0,30.02,NNW,344,4.0,8.0,50,0.00,,,0.00,,2013-02-21 20:32:00,
2013-02-21 15:41:00,31.0,15.0,30.02,NNW,344,4.0,8.0,50,0.00,,,0.00,,2013-02-21 20:41:00,
2013-02-21 15:53:00,30.0,14.0,30.03,NNW,346,1.0,8.0,50,0.00,,,0.00,,2013-02-21 20:53:00,
2013-02-21 16:02:00,30.0,14.0,30.04,North,0,3.0,8.0,51,0.00,,,0.00,,2013-02-21 21:02:00,
2013-02-21 16:12:00,30.0,14.0,30.05,NNW,340,2.0,14.0,50,0.00,,,0.00,,2013-02-21 21:12:00,
2013-02-21 16:22:00,30.0,14.0,30.05,NNW,340,2.0,14.0,50,0.00,,,0.00,,2013-02-21 21:22:00,
2013-02-21 16:31:00,29.0,13.0,30.06,North,350,3.0,10.0,51,0.00,,,0.00,,2013-02-21 21:31:00,
2013-02-21 16:42:00,29.0,14.0,30.07,North,352,2.0,9.0,52,0.00,,,0.00,,2013-02-21 21:42:00,
2013-02-21 16:52:00,29.0,14.0,30.07,North,352,2.0,9.0,52,0.00,,,0.00,,2013-02-21 21:52:00,
2013-02-21 17:01:00,29.0,14.0,30.08,NNW,347,2.0,9.0,53,0.00,,,0.00,,2013-02-21 22:01:00,
2013-02-21 17:11:00,28.0,13.0,30.10,North,355,7.0,8.0,53,0.00,,,0.00,,2013-02-21 22:11:00,
2013-02-21 17:21:00,28.0,13.0,30.10,North,355,7.0,8.0,53,0.00,,,0.00,,2013-02-21 22:21:00,
2013-02-21 17:32:00,28.0,14.0,30.11,North,355,3.0,11.0,54,0.00,,,0.00,,2013-02-21 22:32:00,
2013-02-21 17:42:00,27.0,13.0,30.11,North,355,2.0,7.0,55,0.00,,,0.00,,2013-02-21 22:42:00,
2013-02-21 17:52:00,27.0,13.0,30.11,North,355,2.0,7.0,55,0.00,,,0.00,,2013-02-21 22:52:00,
2013-02-21 18:01:00,27.0,13.0,30.12,NNW,341,2.0,7.0,55,0.00,,,0.00,,2013-02-21 23:01:00,
2013-02-21 18:11:00,27.0,13.0,30.12,NNW,341,2.0,7.0,55,0.00,,,0.00,,2013-02-21 23:11:00,
2013-02-21 18:21:00,26.0,12.0,30.12,North,354,2.0,9.0,56,0.00,,,0.00,,2013-02-21 23:21:00,
2013-02-21 18:32:00,26.0,13.0,30.13,North,0,2.0,8.0,57,0.00,,,0.00,,2013-02-21 23:32:00,
2013-02-21 18:42:00,26.0,13.0,30.13,North,0,2.0,8.0,57,0.00,,,0.00,,2013-02-21 23:42:00,
2013-02-21 18:52:00,26.0,13.0,30.14,North,349,0.0,9.0,57,0.00,,,0.00,,2013-02-21 23:52:00,
2013-02-21 19:01:00,26.0,14.0,30.15,North,349,0.0,2.0,59,0.00,,,0.00,,2013-02-22 00:01:00,
2013-02-21 19:11:00,26.0,14.0,30.15,North,349,0.0,2.0,59,0.00,,,0.00,,2013-02-22 00:11:00,
2013-02-21 19:21:00,25.0,13.0,30.16,North,349,1.0,3.0,59,0.00,,,0.00,,2013-02-22 00:21:00,
2013-02-21 19:32:00,25.0,13.0,30.16,North,349,2.0,3.0,61,0.00,,,0.00,,2013-02-22 00:32:00,
2013-02-21 19:42:00,25.0,13.0,30.16,North,349,2.0,3.0,61,0.00,,,0.00,,2013-02-22 00:42:00,
2013-02-21 19:52:00,25.0,13.0,30.17,North,349,0.0,3.0,61,0.00,,,0.00,,2013-02-22 00:52:00,
2013-02-21 20:01:00,25.0,14.0,30.19,North,349,2.0,3.0,62,0.00,,,0.00,,2013-02-22 01:01:00,
2013-02-21 20:11:00,25.0,14.0,30.19,North,349,2.0,3.0,62,0.00,,,0.00,,2013-02-22 01:11:00,
2013-02-21 20:21:00,24.0,13.0,30.21,North,349,0.0,4.0,63,0.00,,,0.00,,2013-02-22 01:21:00,
2013-02-21 20:32:00,24.0,14.0,30.22,North,349,1.0,2.0,64,0.00,,,0.00,,2013-02-22 01:32:00,
2013-02-21 20:42:00,24.0,14.0,30.23,North,349,0.0,2.0,66,0.00,,,0.00,,2013-02-22 01:42:00,
2013-02-21 20:52:00,24.0,14.0,30.23,North,349,0.0,2.0,66,0.00,,,0.00,,2013-02-22 01:52:00,
2013-02-21 21:02:00,24.0,14.0,30.24,North,349,1.0,2.0,66,0.00,,,0.00,,2013-02-22 02:02:00,
2013-02-21 21:11:00,24.0,15.0,30.25,WSW,251,2.0,3.0,67,0.00,,,0.00,,2013-02-22 02:11:00,
2013-02-21 21:21:00,24.0,15.0,30.25,WSW,251,2.0,3.0,67,0.00,,,0.00,,2013-02-22 02:21:00,
2013-02-21 21:32:00,24.0,15.0,30.27,WSW,251,0.0,3.0,67,0.00,,,0.00,,2013-02-22 02:32:00,
2013-02-21 21:42:00,25.0,15.0,30.27,NNW,327,1.0,5.0,66,0.00,,,0.00,,2013-02-22 02:42:00,
2013-02-21 21:52:00,25.0,15.0,30.27,NNW,327,1.0,5.0,66,0.00,,,0.00,,2013-02-22 02:52:00,
2013-02-21 22:01:00,25.0,15.0,30.27,North,358,2.0,5.0,64,0.00,,,0.00,,2013-02-22 03:01:00,
2013-02-21 22:11:00,25.0,15.0,30.28,NNW,346,3.0,5.0,64,0.00,,,0.00,,2013-02-22 03:11:00,
2013-02-21 22:21:00,25.0,15.0,30.28,NNW,346,3.0,5.0,64,0.00,,,0.00,,2013-02-22 03:21:00,
2013-02-21 22:32:00,25.0,15.0,30.28,NNW,346,3.0,4.0,64,0.00,,,0.00,,2013-02-22 03:32:00,
2013-02-21 22:42:00,25.0,15.0,30.28,NNW,346,3.0,4.0,64,0.00,,,0.00,,2013-02-22 03:42:00,
2013-02-21 22:52:00,26.0,16.0,30.29,North,350,0.0,5.0,64,0.00,,,0.00,,2013-02-22 03:52:00,
2013-02-21 23:02:00,26.0,16.0,30.29,North,352,0.0,5.0,64,0.00,,,0.00,,2013-02-22 04:02:00,
2013-02-21 23:11:00,25.0,15.0,30.30,North,352,0.0,3.0,65,0.00,,,0.00,,2013-02-22 04:11:00,
2013-02-21 23:21:00,25.0,15.0,30.30,North,352,0.0,3.0,65,0.00,,,0.00,,2013-02-22 04:21:00,
2013-02-21 23:32:00,25.0,15.0,30.29,North,354,1.0,3.0,66,0.00,,,0.00,,2013-02-22 04:32:00,
2013-02-21 23:42:00,25.0,15.0,30.31,North,354,0.0,3.0,65,0.00,,,0.00,,2013-02-22 04:42:00,
2013-02-21 23:52:00,25.0,15.0,30.31,North,354,0.0,3.0,65,0.00,,,0.00,,2013-02-22 04:52:00,